Location: Eaton Estates
(41.3089°N, 82.0057°W)
Time: 10:49:35
(UTC+00:00)

Cosmos 2237 Rocket - Pass Details

Date: 17 June 2021
Orbit: 835 x 850 km, 71.0° (Epoch: 26 July)

Event Time Altitude Azimuth Distance (km) Brightness Sun altitude
Exits shadow 06:11:04 15° 266° (W) 2,103 4.1 -24.6°
Maximum altitude 06:14:09 23° 307° (NW) 1,705 4.0 -24.5°
Drops below altitude 10° 06:18:34 10° 359° (N) 2,454 5.6 -24.3°
Sets 06:21:33 0° 14° (NNE) 3,393 6.8 -24.2°
